| time (UTC) | temp C | wind direction | speed KPH | gust KPH | rain 1hr cm | rain 24hr cm | rain mn cm | humidity % | barometer mb |
| 20260510070324 | 14 | 153 | 3.2 | 11.3 | 0.00 | 0.00 | 0.00 | 69 | 1014.8 |
| 20260510065823 | 14 | 139 | 4.8 | 11.3 | 0.00 | 0.00 | 0.00 | 69 | 1014.9 |
| 20260510065323 | 14 | 115 | 4.8 | 11.3 | 0.00 | 0.00 | 0.00 | 70 | 1014.9 |
| 20260510064823 | 13 | 103 | 3.2 | 11.3 | 0.00 | 0.00 | 0.00 | 71 | 1014.9 |
| 20260510064324 | 13 | 134 | 4.8 | 12.9 | 0.00 | 0.00 | 0.00 | 71 | 1014.9 |
| 20260510063826 | 13 | 104 | 8.0 | 12.9 | 0.00 | 0.00 | 0.00 | 71 | 1014.9 |
| 20260510063329 | 13 | 150 | 4.8 | 9.7 | 0.00 | 0.00 | 0.00 | 74 | 1015.0 |
| 20260510062851 | 13 | 93 | 3.2 | 11.3 | 0.00 | 0.00 | 0.00 | 74 | 1014.9 |
| 20260510062353 | 12 | 181 | 3.2 | 11.3 | 0.00 | 0.00 | 0.00 | 75 | 1015.0 |
| 20260510061814 | 12 | 120 | 1.6 | 11.3 | 0.00 | 0.00 | 0.00 | 76 | 1015.2 |
| 20260510061317 | 12 | 135 | 4.8 | 11.3 | 0.00 | 0.00 | 0.00 | 76 | 1015.2 |
| 20260510060817 | 11 | 107 | 1.6 | 11.3 | 0.00 | 0.00 | 0.00 | 80 | 1015.1 |
| 20260510060318 | 11 | 138 | 3.2 | 8.0 | 0.00 | 0.00 | 0.00 | 80 | 1015.1 |
| 20260510055819 | 11 | 151 | 4.8 | 8.0 | 0.00 | 0.00 | 0.00 | 81 | 1015.2 |
| 20260510055319 | 11 | 93 | 3.2 | 6.4 | 0.00 | 0.00 | 0.00 | 82 | 1015.2 |
| 20260510054820 | 11 | 141 | 1.6 | 9.7 | 0.00 | 0.00 | 0.00 | 84 | 1015.3 |
| 20260510054319 | 10 | 118 | 3.2 | 11.3 | 0.00 | 0.00 | 0.00 | 84 | 1015.4 |
| 20260510053820 | 10 | 137 | 8.0 | 11.3 | 0.00 | 0.00 | 0.00 | 84 | 1015.3 |
| 20260510053321 | 10 | 102 | 3.2 | 8.0 | 0.00 | 0.00 | 0.00 | 85 | 1015.3 |
| 20260510052842 | 10 | 117 | 1.6 | 8.0 | 0.00 | 0.00 | 0.00 | 85 | 1015.3 |
| 20260510052341 | 10 | 113 | 3.2 | 6.4 | 0.00 | 0.00 | 0.00 | 85 | 1015.5 |
| 20260510051821 | 10 | 117 | 0.0 | 1.6 | 0.00 | 0.00 | 0.00 | 85 | 1015.5 |
| 20260510051322 | 9 | 113 | 0.0 | 1.6 | 0.00 | 0.00 | 0.00 | 87 | 1015.5 |
| 20260510050821 | 8 | 120 | 0.0 | 3.2 | 0.00 | 0.00 | 0.00 | 87 | 1015.5 |
| 20260510050324 | 8 | 134 | 0.0 | 3.2 | 0.00 | 0.00 | 0.00 | 88 | 1015.5 |
| 20260510045325 | 8 | 125 | 0.0 | 1.6 | 0.00 | 0.00 | 0.00 | 89 | 1015.5 |
| 20260510044824 | 8 | 131 | 0.0 | 1.6 | 0.00 | 0.00 | 0.00 | 89 | 1015.6 |
| 20260510044324 | 8 | 131 | 0.0 | 1.6 | 0.00 | 0.00 | 0.00 | 90 | 1015.7 |
| 20260510043824 | 7 | 131 | 0.0 | 3.2 | 0.00 | 0.00 | 0.00 | 91 | 1015.6 |
| 20260510043345 | 7 | 131 | 1.6 | 3.2 | 0.00 | 0.00 | 0.00 | 91 | 1015.6 |
| 20260510042825 | 7 | 115 | 0.0 | 3.2 | 0.00 | 0.00 | 0.00 | 92 | 1015.6 |
| 20260510042326 | 7 | 115 | 0.0 | 3.2 | 0.00 | 0.00 | 0.00 | 92 | 1015.6 |
| 20260510041828 | 7 | 122 | 0.0 | 1.6 | 0.00 | 0.00 | 0.00 | 93 | 1015.5 |
| 20260510041330 | 7 | 122 | 0.0 | 1.6 | 0.00 | 0.00 | 0.00 | 93 | 1015.5 |
| 20260510040831 | 7 | 122 | 0.0 | 1.6 | 0.00 | 0.00 | 0.00 | 94 | 1015.6 |
| 20260510040350 | 7 | 122 | 0.0 | 0.0 | 0.00 | 0.00 | 0.00 | 94 | 1015.5 |
| 20260510035852 | 6 | 122 | 0.0 | 0.0 | 0.00 | 0.00 | 0.00 | 94 | 1015.5 |
| 20260510035314 | 6 | 122 | 0.0 | 0.0 | 0.00 | 0.00 | 0.00 | 94 | 1015.5 |
| 20260510034816 | 6 | 122 | 0.0 | 0.0 | 0.00 | 0.00 | 0.00 | 94 | 1015.5 |
| 20260510034316 | 6 | 122 | 0.0 | 0.0 | 0.00 | 0.00 | 0.00 | 94 | 1015.5 |
| 20260510033818 | 6 | 122 | 0.0 | 0.0 | 0.00 | 0.00 | 0.00 | 94 | 1015.5 |
| 20260510033321 | 5 | 122 | 0.0 | 0.0 | 0.00 | 0.00 | 0.00 | 94 | 1015.5 |
| 20260510032822 | 5 | 122 | 0.0 | 0.0 | 0.00 | 0.00 | 0.00 | 93 | 1015.5 |
| 20260510032325 | 6 | 122 | 0.0 | 0.0 | 0.00 | 0.00 | 0.00 | 94 | 1015.5 |
| 20260510031827 | 6 | 122 | 0.0 | 1.6 | 0.00 | 0.00 | 0.00 | 94 | 1015.5 |
| 20260510031330 | 6 | 122 | 0.0 | 1.6 | 0.00 | 0.00 | 0.00 | 94 | 1015.6 |
| 20260510030831 | 6 | 122 | 0.0 | 1.6 | 0.00 | 0.00 | 0.00 | 94 | 1015.6 |
| 20260510030313 | 5 | 122 | 0.0 | 1.6 | 0.00 | 0.00 | 0.00 | 93 | 1015.7 |
| 20260510025815 | 5 | 122 | 0.0 | 1.6 | 0.00 | 0.00 | 0.00 | 93 | 1015.8 |
| 20260510025317 | 6 | 122 | 0.0 | 1.6 | 0.00 | 0.00 | 0.00 | 93 | 1015.9 |
| 20260510024839 | 5 | 122 | 0.0 | 1.6 | 0.00 | 0.00 | 0.00 | 93 | 1016.0 |
| 20260510024340 | 6 | 122 | 0.0 | 0.0 | 0.00 | 0.00 | 0.00 | 93 | 1016.0 |
| 20260510023820 | 6 | 122 | 0.0 | 1.6 | 0.00 | 0.00 | 0.00 | 92 | 1016.1 |
| 20260510023323 | 6 | 122 | 0.0 | 1.6 | 0.00 | 0.00 | 0.00 | 92 | 1016.2 |
| 20260510022823 | 6 | 122 | 1.6 | 1.6 | 0.00 | 0.00 | 0.00 | 92 | 1016.3 |
| 20260510022325 | 6 | 121 | 0.0 | 0.0 | 0.00 | 0.00 | 0.00 | 92 | 1016.3 |
| 20260510021826 | 6 | 121 | 0.0 | 0.0 | 0.00 | 0.00 | 0.00 | 92 | 1016.2 |
| 20260510021349 | 6 | 121 | 0.0 | 1.6 | 0.00 | 0.00 | 0.00 | 93 | 1016.2 |
| 20260510020829 | 6 | 122 | 0.0 | 1.6 | 0.00 | 0.00 | 0.00 | 92 | 1016.2 |
| 20260510020351 | 6 | 122 | 0.0 | 0.0 | 0.00 | 0.00 | 0.00 | 92 | 1016.3 |
| 20260510015832 | 6 | 121 | 0.0 | 1.6 | 0.00 | 0.00 | 0.00 | 92 | 1016.3 |
| 20260510015315 | 6 | 122 | 0.0 | 1.6 | 0.00 | 0.00 | 0.00 | 91 | 1016.4 |
| 20260510014830 | 7 | 122 | 0.0 | 1.6 | 0.00 | 0.00 | 0.00 | 91 | 1016.5 |
| 20260510014331 | 7 | 122 | 0.0 | 1.6 | 0.00 | 0.00 | 0.00 | 92 | 1016.5 |
| 20260510013831 | 7 | 122 | 0.0 | 4.8 | 0.00 | 0.00 | 0.00 | 92 | 1016.6 |
| 20260510013332 | 7 | 122 | 1.6 | 4.8 | 0.00 | 0.00 | 0.00 | 92 | 1016.6 |
| 20260510012332 | 7 | 101 | 0.0 | 0.0 | 0.00 | 0.00 | 0.00 | 92 | 1016.7 |
| 20260510011813 | 7 | 101 | 0.0 | 0.0 | 0.00 | 0.00 | 0.00 | 92 | 1016.8 |
| 20260510011316 | 7 | 101 | 0.0 | 0.0 | 0.00 | 0.00 | 0.00 | 92 | 1016.9 |
| 20260510010819 | 7 | 101 | 0.0 | 0.0 | 0.00 | 0.00 | 0.00 | 92 | 1017.0 |
| 20260510010342 | 7 | 101 | 0.0 | 0.0 | 0.00 | 0.00 | 0.00 | 92 | 1017.0 |
| 20260510005823 | 7 | 101 | 0.0 | 0.0 | 0.00 | 0.00 | 0.00 | 92 | 1017.0 |
| 20260510005346 | 7 | 101 | 0.0 | 0.0 | 0.00 | 0.00 | 0.00 | 91 | 1017.1 |
| 20260510004847 | 7 | 101 | 0.0 | 0.0 | 0.00 | 0.00 | 0.00 | 91 | 1017.2 |
| 20260510004329 | 7 | 101 | 0.0 | 0.0 | 0.00 | 0.00 | 0.00 | 92 | 1017.2 |
| 20260510003812 | 7 | 101 | 0.0 | 0.0 | 0.00 | 0.00 | 0.00 | 91 | 1017.2 |
| 20260510003314 | 7 | 101 | 0.0 | 0.0 | 0.00 | 0.00 | 0.00 | 92 | 1017.2 |
| 20260510002837 | 7 | 101 | 0.0 | 0.0 | 0.00 | 0.00 | 0.00 | 91 | 1017.2 |
| 20260510002320 | 7 | 101 | 0.0 | 0.0 | 0.00 | 0.00 | 0.00 | 91 | 1017.3 |
| 20260510001821 | 7 | 101 | 0.0 | 0.0 | 0.00 | 0.00 | 0.00 | 90 | 1017.3 |
| 20260510001322 | 7 | 101 | 0.0 | 0.0 | 0.00 | 0.00 | 0.00 | 91 | 1017.4 |
| 20260510000844 | 7 | 101 | 0.0 | 0.0 | 0.00 | 0.00 | 0.00 | 90 | 1017.5 |
| 20260510000344 | 7 | 101 | 0.0 | 0.0 | 0.00 | 0.00 | 0.00 | 90 | 1017.5 |
| 20260509235823 | 7 | 101 | 0.0 | 0.0 | 0.00 | 0.00 | 0.00 | 89 | 1017.5 |
| 20260509235323 | 7 | 101 | 0.0 | 0.0 | 0.00 | 0.00 | 0.00 | 89 | 1017.6 |
| 20260509234824 | 7 | 101 | 0.0 | 0.0 | 0.00 | 0.00 | 0.00 | 89 | 1017.6 |
| 20260509234326 | 7 | 101 | 0.0 | 0.0 | 0.00 | 0.00 | 0.00 | 90 | 1017.6 |
| 20260509233828 | 7 | 101 | 0.0 | 0.0 | 0.00 | 0.00 | 0.00 | 89 | 1017.7 |
| 20260509233323 | 7 | 101 | 0.0 | 0.0 | 0.00 | 0.00 | 0.00 | 90 | 1017.7 |
| 20260509232823 | 7 | 101 | 0.0 | 0.0 | 0.00 | 0.00 | 0.00 | 89 | 1017.8 |
| 20260509232324 | 7 | 101 | 0.0 | 0.0 | 0.00 | 0.00 | 0.00 | 89 | 1017.9 |
| 20260509231844 | 8 | 101 | 0.0 | 0.0 | 0.00 | 0.00 | 0.00 | 88 | 1018.1 |
| 20260509231324 | 8 | 101 | 0.0 | 0.0 | 0.00 | 0.00 | 0.00 | 88 | 1018.0 |
| 20260509230824 | 8 | 101 | 0.0 | 0.0 | 0.00 | 0.00 | 0.00 | 88 | 1018.1 |
| 20260509230324 | 8 | 101 | 0.0 | 0.0 | 0.00 | 0.00 | 0.00 | 88 | 1018.0 |
| 20260509225826 | 8 | 101 | 0.0 | 0.0 | 0.00 | 0.00 | 0.00 | 88 | 1018.1 |
| 20260509225347 | 8 | 101 | 0.0 | 0.0 | 0.00 | 0.00 | 0.00 | 89 | 1018.1 |
| 20260509224825 | 8 | 122 | 0.0 | 0.0 | 0.00 | 0.00 | 0.00 | 88 | 1018.1 |
| 20260509224325 | 8 | 122 | 0.0 | 0.0 | 0.00 | 0.00 | 0.00 | 89 | 1018.2 |
| 20260509223825 | 8 | 122 | 0.0 | 0.0 | 0.00 | 0.00 | 0.00 | 88 | 1018.2 |
| 20260509223325 | 8 | 122 | 0.0 | 0.0 | 0.00 | 0.00 | 0.00 | 87 | 1018.1 |
| 20260509222826 | 8 | 122 | 0.0 | 0.0 | 0.00 | 0.00 | 0.00 | 87 | 1018.2 |
| 20260509222328 | 8 | 122 | 0.0 | 0.0 | 0.00 | 0.00 | 0.00 | 88 | 1018.4 |
| 20260509221831 | 8 | 122 | 0.0 | 0.0 | 0.00 | 0.00 | 0.00 | 88 | 1018.4 |
| 20260509221334 | 8 | 122 | 0.0 | 0.0 | 0.00 | 0.00 | 0.00 | 88 | 1018.3 |
| 20260509220835 | 8 | 122 | 0.0 | 1.6 | 0.00 | 0.00 | 0.00 | 88 | 1018.3 |
| 20260509220358 | 8 | 122 | 0.0 | 1.6 | 0.00 | 0.00 | 0.00 | 88 | 1018.2 |
| 20260509215813 | 8 | 122 | 0.0 | 0.0 | 0.00 | 0.00 | 0.00 | 87 | 1018.2 |
| 20260509215318 | 8 | 122 | 0.0 | 0.0 | 0.00 | 0.00 | 0.00 | 87 | 1018.1 |
| 20260509214822 | 8 | 122 | 0.0 | 0.0 | 0.00 | 0.00 | 0.00 | 87 | 1018.1 |
| 20260509214325 | 8 | 122 | 0.0 | 0.0 | 0.00 | 0.00 | 0.00 | 86 | 1018.1 |
| 20260509213826 | 9 | 122 | 0.0 | 0.0 | 0.00 | 0.00 | 0.00 | 86 | 1018.2 |
| 20260509213346 | 9 | 122 | 0.0 | 1.6 | 0.00 | 0.00 | 0.00 | 85 | 1018.3 |
| 20260509212826 | 9 | 122 | 0.0 | 1.6 | 0.00 | 0.00 | 0.00 | 85 | 1018.3 |
| 20260509212326 | 10 | 122 | 0.0 | 1.6 | 0.00 | 0.00 | 0.00 | 85 | 1018.3 |
| 20260509211829 | 10 | 122 | 0.0 | 1.6 | 0.00 | 0.00 | 0.00 | 85 | 1018.3 |
| 20260509211314 | 10 | 122 | 0.0 | 1.6 | 0.00 | 0.00 | 0.00 | 84 | 1018.3 |
| 20260509210323 | 10 | 122 | 0.0 | 1.6 | 0.00 | 0.00 | 0.00 | 84 | 1018.3 |
| 20260509205826 | 10 | 122 | 0.0 | 1.6 | 0.00 | 0.00 | 0.00 | 83 | 1018.3 |
| 20260509205348 | 10 | 122 | 0.0 | 3.2 | 0.00 | 0.00 | 0.00 | 83 | 1018.4 |
| 20260509204828 | 10 | 126 | 1.6 | 3.2 | 0.00 | 0.00 | 0.00 | 84 | 1018.4 |
| 20260509204331 | 10 | 142 | 0.0 | 0.0 | 0.00 | 0.00 | 0.00 | 84 | 1018.5 |
| 20260509203831 | 10 | 142 | 0.0 | 0.0 | 0.00 | 0.00 | 0.00 | 84 | 1018.5 |
| 20260509203314 | 10 | 142 | 0.0 | 0.0 | 0.00 | 0.00 | 0.00 | 83 | 1018.5 |
| 20260509202816 | 10 | 142 | 0.0 | 0.0 | 0.00 | 0.00 | 0.00 | 83 | 1018.5 |
| 20260509202318 | 10 | 142 | 0.0 | 0.0 | 0.00 | 0.00 | 0.00 | 82 | 1018.5 |
| 20260509201821 | 10 | 142 | 0.0 | 0.0 | 0.00 | 0.00 | 0.00 | 80 | 1018.5 |
| 20260509201323 | 11 | 142 | 0.0 | 0.0 | 0.00 | 0.00 | 0.00 | 79 | 1018.4 |
| 20260509200825 | 11 | 142 | 0.0 | 0.0 | 0.00 | 0.00 | 0.00 | 79 | 1018.4 |
| 20260509200329 | 11 | 142 | 0.0 | 0.0 | 0.00 | 0.00 | 0.00 | 78 | 1018.4 |
| 20260509195853 | 11 | 142 | 0.0 | 0.0 | 0.00 | 0.00 | 0.00 | 77 | 1018.4 |
| 20260509195313 | 11 | 142 | 0.0 | 0.0 | 0.00 | 0.00 | 0.00 | 77 | 1018.4 |
| 20260509194816 | 12 | 142 | 0.0 | 0.0 | 0.00 | 0.00 | 0.00 | 76 | 1018.4 |
| 20260509194320 | 12 | 142 | 0.0 | 0.0 | 0.00 | 0.00 | 0.00 | 76 | 1018.4 |
| 20260509193822 | 12 | 142 | 0.0 | 0.0 | 0.00 | 0.00 | 0.00 | 76 | 1018.4 |
| 20260509193331 | 12 | 142 | 0.0 | 1.6 | 0.00 | 0.00 | 0.00 | 75 | 1018.4 |
| 20260509192832 | 12 | 142 | 0.0 | 1.6 | 0.00 | 0.00 | 0.00 | 75 | 1018.4 |
| 20260509192313 | 12 | 135 | 0.0 | 1.6 | 0.00 | 0.00 | 0.00 | 75 | 1018.3 |
| 20260509191815 | 12 | 134 | 0.0 | 1.6 | 0.00 | 0.00 | 0.00 | 74 | 1018.3 |
| 20260509191318 | 12 | 136 | 0.0 | 1.6 | 0.00 | 0.00 | 0.00 | 73 | 1018.2 |
| 20260509190819 | 13 | 136 | 0.0 | 1.6 | 0.00 | 0.00 | 0.00 | 72 | 1018.2 |
| 20260509190320 | 13 | 136 | 0.0 | 1.6 | 0.00 | 0.00 | 0.00 | 71 | 1018.2 |
| 20260509185842 | 13 | 136 | 0.0 | 1.6 | 0.00 | 0.00 | 0.00 | 71 | 1018.1 |
| 20260509185322 | 13 | 136 | 0.0 | 3.2 | 0.00 | 0.00 | 0.00 | 70 | 1018.1 |
| 20260509184827 | 13 | 136 | 0.0 | 3.2 | 0.00 | 0.00 | 0.00 | 69 | 1018.0 |
| 20260509184350 | 13 | 136 | 0.0 | 4.8 | 0.00 | 0.00 | 0.00 | 68 | 1018.0 |
| 20260509183814 | 14 | 139 | 1.6 | 4.8 | 0.00 | 0.00 | 0.00 | 68 | 1018.0 |
| 20260509183346 | 14 | 124 | 0.0 | 3.2 | 0.00 | 0.00 | 0.00 | 67 | 1018.0 |
| 20260509182830 | 14 | 133 | 1.6 | 6.4 | 0.00 | 0.00 | 0.00 | 67 | 1018.0 |
| 20260509182332 | 15 | 149 | 1.6 | 6.4 | 0.00 | 0.00 | 0.00 | 66 | 1018.0 |
| 20260509181815 | 15 | 141 | 3.2 | 4.8 | 0.00 | 0.00 | 0.00 | 66 | 1018.1 |
| 20260509181338 | 15 | 129 | 3.2 | 4.8 | 0.00 | 0.00 | 0.00 | 66 | 1018.0 |
| 20260509180818 | 15 | 122 | 1.6 | 6.4 | 0.00 | 0.00 | 0.00 | 66 | 1018.1 |
| 20260509180318 | 15 | 122 | 3.2 | 8.0 | 0.00 | 0.00 | 0.00 | 65 | 1018.1 |
| 20260509175817 | 15 | 144 | 4.8 | 8.0 | 0.00 | 0.00 | 0.00 | 65 | 1018.1 |
| 20260509175321 | 15 | 139 | 3.2 | 6.4 | 0.00 | 0.00 | 0.00 | 66 | 1018.2 |
| 20260509174825 | 15 | 127 | 3.2 | 4.8 | 0.00 | 0.00 | 0.00 | 65 | 1018.2 |
| 20260509174325 | 15 | 137 | 1.6 | 4.8 | 0.00 | 0.00 | 0.00 | 65 | 1018.2 |
| 20260509173849 | 15 | 137 | 1.6 | 8.0 | 0.00 | 0.00 | 0.00 | 64 | 1018.2 |
| 20260509173350 | 15 | 129 | 1.6 | 8.0 | 0.00 | 0.00 | 0.00 | 63 | 1018.2 |
| 20260509172829 | 15 | 134 | 3.2 | 9.7 | 0.00 | 0.00 | 0.00 | 63 | 1018.2 |
| 20260509172349 | 16 | 122 | 3.2 | 9.7 | 0.00 | 0.00 | 0.00 | 63 | 1018.2 |
| 20260509171829 | 16 | 72 | 1.6 | 6.4 | 0.00 | 0.00 | 0.00 | 62 | 1018.3 |
| 20260509171329 | 16 | 86 | 3.2 | 8.0 | 0.00 | 0.00 | 0.00 | 61 | 1018.2 |
| 20260509170828 | 16 | 116 | 4.8 | 8.0 | 0.00 | 0.00 | 0.00 | 61 | 1018.3 |
| 20260509170351 | 16 | 124 | 1.6 | 6.4 | 0.00 | 0.00 | 0.00 | 62 | 1018.3 |
| 20260509165814 | 16 | 121 | 3.2 | 8.0 | 0.00 | 0.00 | 0.00 | 62 | 1018.4 |
| 20260509165318 | 16 | 146 | 1.6 | 4.8 | 0.00 | 0.00 | 0.00 | 61 | 1018.4 |
| 20260509164840 | 16 | 121 | 0.0 | 3.2 | 0.00 | 0.00 | 0.00 | 60 | 1018.4 |
| 20260509164339 | 16 | 121 | 0.0 | 3.2 | 0.00 | 0.00 | 0.00 | 59 | 1018.4 |
| 20260509163839 | 16 | 58 | 0.0 | 1.6 | 0.00 | 0.00 | 0.00 | 59 | 1018.4 |
| 20260509163317 | 16 | 58 | 0.0 | 1.6 | 0.00 | 0.00 | 0.00 | 58 | 1018.5 |
| 20260509162817 | 16 | 56 | 0.0 | 1.6 | 0.00 | 0.00 | 0.00 | 58 | 1018.5 |
| 20260509162317 | 16 | 56 | 0.0 | 1.6 | 0.00 | 0.00 | 0.00 | 58 | 1018.6 |
| 20260509161817 | 16 | 56 | 0.0 | 3.2 | 0.00 | 0.00 | 0.00 | 58 | 1018.6 |
| 20260509161317 | 16 | 56 | 1.6 | 3.2 | 0.00 | 0.00 | 0.00 | 58 | 1018.6 |
| 20260509160819 | 16 | 56 | 0.0 | 4.8 | 0.00 | 0.00 | 0.00 | 58 | 1018.7 |
| 20260509160321 | 16 | 55 | 1.6 | 4.8 | 0.00 | 0.00 | 0.00 | 58 | 1018.7 |
| 20260509155823 | 17 | 60 | 3.2 | 4.8 | 0.00 | 0.00 | 0.00 | 57 | 1018.7 |
| 20260509155326 | 17 | 128 | 1.6 | 3.2 | 0.00 | 0.00 | 0.00 | 56 | 1018.8 |
| 20260509154829 | 17 | 133 | 1.6 | 4.8 | 0.00 | 0.00 | 0.00 | 55 | 1018.8 |
| 20260509154352 | 17 | 202 | 1.6 | 8.0 | 0.00 | 0.00 | 0.00 | 55 | 1018.8 |
| 20260509153832 | 17 | 52 | 4.8 | 8.0 | 0.00 | 0.00 | 0.00 | 55 | 1018.8 |
| 20260509153315 | 17 | 149 | 0.0 | 1.6 | 0.00 | 0.00 | 0.00 | 55 | 1018.8 |
| 20260509152838 | 17 | 142 | 0.0 | 3.2 | 0.00 | 0.00 | 0.00 | 56 | 1018.9 |
| 20260509152318 | 16 | 68 | 0.0 | 1.6 | 0.00 | 0.00 | 0.00 | 56 | 1018.9 |
| 20260509151821 | 16 | 68 | 0.0 | 1.6 | 0.00 | 0.00 | 0.00 | 57 | 1018.9 |
| 20260509151324 | 16 | 68 | 0.0 | 3.2 | 0.00 | 0.00 | 0.00 | 57 | 1018.9 |
| 20260509150825 | 16 | 68 | 1.6 | 3.2 | 0.00 | 0.00 | 0.00 | 57 | 1018.9 |
| 20260509150328 | 16 | 67 | 1.6 | 4.8 | 0.00 | 0.00 | 0.00 | 57 | 1018.9 |
| 20260509145830 | 16 | 68 | 3.2 | 4.8 | 0.00 | 0.00 | 0.00 | 56 | 1019.0 |
| 20260509145333 | 17 | 73 | 0.0 | 3.2 | 0.00 | 0.00 | 0.00 | 58 | 1019.0 |
| 20260509144819 | 16 | 1 | 0.0 | 6.4 | 0.00 | 0.00 | 0.00 | 58 | 1019.0 |
| 20260509144320 | 16 | 1 | 0.0 | 6.4 | 0.00 | 0.00 | 0.00 | 58 | 1019.0 |
| 20260509143824 | 17 | 53 | 1.6 | 4.8 | 0.00 | 0.00 | 0.00 | 57 | 1019.1 |
| 20260509143329 | 17 | 53 | 0.0 | 3.2 | 0.00 | 0.00 | 0.00 | 56 | 1019.1 |
| 20260509142814 | 16 | 53 | 0.0 | 4.8 | 0.00 | 0.00 | 0.00 | 57 | 1019.1 |
| 20260509142316 | 16 | 53 | 1.6 | 6.4 | 0.00 | 0.00 | 0.00 | 57 | 1019.1 |
| 20260509141320 | 16 | 45 | 3.2 | 6.4 | 0.00 | 0.00 | 0.00 | 56 | 1019.2 |
| 20260509140820 | 16 | 37 | 3.2 | 6.4 | 0.00 | 0.00 | 0.00 | 57 | 1019.2 |
| 20260509140321 | 16 | 37 | 3.2 | 8.0 | 0.00 | 0.00 | 0.00 | 57 | 1019.3 |
| 20260509135822 | 17 | 22 | 1.6 | 8.0 | 0.00 | 0.00 | 0.00 | 56 | 1019.3 |
| 20260509135322 | 16 | 68 | 1.6 | 8.0 | 0.00 | 0.00 | 0.00 | 56 | 1019.3 |
| 20260509134825 | 17 | 54 | 4.8 | 8.0 | 0.00 | 0.00 | 0.00 | 56 | 1019.4 |
| 20260509134328 | 17 | 61 | 1.6 | 4.8 | 0.00 | 0.00 | 0.00 | 56 | 1019.4 |
| 20260509133851 | 17 | 37 | 1.6 | 8.0 | 0.00 | 0.00 | 0.00 | 54 | 1019.5 |
| 20260509133331 | 17 | 46 | 3.2 | 8.0 | 0.00 | 0.00 | 0.00 | 55 | 1019.5 |
| 20260509132812 | 17 | 62 | 3.2 | 6.4 | 0.00 | 0.00 | 0.00 | 56 | 1019.5 |
| 20260509132333 | 17 | 37 | 1.6 | 4.8 | 0.00 | 0.00 | 0.00 | 55 | 1019.6 |
| 20260509131849 | 16 | 14 | 3.2 | 4.8 | 0.00 | 0.00 | 0.00 | 56 | 1019.5 |
| 20260509131348 | 17 | 17 | 3.2 | 4.8 | 0.00 | 0.00 | 0.00 | 56 | 1019.6 |
| 20260509130828 | 16 | 272 | 1.6 | 8.0 | 0.00 | 0.00 | 0.00 | 56 | 1019.6 |
| 20260509130330 | 16 | 201 | 3.2 | 8.0 | 0.00 | 0.00 | 0.00 | 56 | 1019.7 |
| 20260509125813 | 17 | 357 | 0.0 | 4.8 | 0.00 | 0.00 | 0.00 | 57 | 1019.7 |
| 20260509125316 | 16 | 245 | 0.0 | 9.7 | 0.00 | 0.00 | 0.00 | 59 | 1019.7 |
| 20260509124840 | 16 | 253 | 6.4 | 9.7 | 0.00 | 0.00 | 0.00 | 57 | 1019.8 |
| 20260509124322 | 16 | 205 | 3.2 | 8.0 | 0.00 | 0.00 | 0.00 | 58 | 1019.8 |
| 20260509123824 | 16 | 122 | 6.4 | 8.0 | 0.00 | 0.00 | 0.00 | 56 | 1019.9 |
| 20260509123327 | 17 | 123 | 1.6 | 3.2 | 0.00 | 0.00 | 0.00 | 56 | 1019.9 |
| 20260509122830 | 16 | 132 | 1.6 | 4.8 | 0.00 | 0.00 | 0.00 | 58 | 1020.0 |
| 20260509122352 | 16 | 230 | 1.6 | 4.8 | 0.00 | 0.00 | 0.00 | 58 | 1020.0 |
| 20260509121831 | 16 | 254 | 1.6 | 4.8 | 0.00 | 0.00 | 0.00 | 59 | 1020.0 |
| 20260509121331 | 16 | 218 | 0.0 | 3.2 | 0.00 | 0.00 | 0.00 | 59 | 1019.9 |
| 20260509120832 | 16 | 219 | 0.0 | 6.4 | 0.00 | 0.00 | 0.00 | 60 | 1020.0 |
| 20260509120353 | 16 | 229 | 4.8 | 6.4 | 0.00 | 0.00 | 0.00 | 58 | 1020.0 |
| 20260509115828 | 16 | 193 | 1.6 | 8.0 | 0.00 | 0.00 | 0.00 | 58 | 1019.9 |
| 20260509115331 | 16 | 123 | 1.6 | 8.0 | 0.00 | 0.00 | 0.00 | 57 | 1019.9 |
| 20260509114814 | 16 | 50 | 1.6 | 9.7 | 0.00 | 0.00 | 0.00 | 57 | 1020.0 |
| 20260509114317 | 16 | 48 | 4.8 | 9.7 | 0.00 | 0.00 | 0.00 | 58 | 1020.1 |
| 20260509113819 | 16 | 127 | 3.2 | 6.4 | 0.00 | 0.00 | 0.00 | 56 | 1020.2 |
| 20260509113322 | 16 | 133 | 1.6 | 6.4 | 0.00 | 0.00 | 0.00 | 58 | 1020.2 |
| 20260509112825 | 16 | 68 | 0.0 | 8.0 | 0.00 | 0.00 | 0.00 | 60 | 1020.2 |
| 20260509112327 | 16 | 151 | 3.2 | 9.7 | 0.00 | 0.00 | 0.00 | 59 | 1020.2 |
| 20260509111850 | 16 | 121 | 4.8 | 9.7 | 0.00 | 0.00 | 0.00 | 58 | 1020.2 |
| 20260509111313 | 16 | 57 | 3.2 | 6.4 | 0.00 | 0.00 | 0.00 | 57 | 1020.2 |
| 20260509110816 | 16 | 50 | 3.2 | 6.4 | 0.00 | 0.00 | 0.00 | 58 | 1020.3 |
| 20260509110319 | 16 | 62 | 0.0 | 4.8 | 0.00 | 0.00 | 0.00 | 59 | 1020.3 |
| 20260509105822 | 16 | 129 | 1.6 | 4.8 | 0.00 | 0.00 | 0.00 | 58 | 1020.3 |
| 20260509105327 | 16 | 135 | 1.6 | 4.8 | 0.00 | 0.00 | 0.00 | 58 | 1020.3 |
| 20260509104832 | 16 | 71 | 3.2 | 4.8 | 0.00 | 0.00 | 0.00 | 58 | 1020.4 |
| 20260509104314 | 16 | 148 | 1.6 | 6.4 | 0.00 | 0.00 | 0.00 | 59 | 1020.3 |
| 20260509103816 | 16 | 106 | 3.2 | 6.4 | 0.00 | 0.00 | 0.00 | 57 | 1020.4 |
| 20260509103339 | 16 | 45 | 0.0 | 4.8 | 0.00 | 0.00 | 0.00 | 57 | 1020.4 |
| 20260509102821 | 16 | 143 | 0.0 | 6.4 | 0.00 | 0.00 | 0.00 | 58 | 1020.4 |
| 20260509102344 | 16 | 59 | 3.2 | 6.4 | 0.00 | 0.00 | 0.00 | 58 | 1020.3 |
| 20260509101824 | 16 | 129 | 0.0 | 11.3 | 0.00 | 0.00 | 0.00 | 58 | 1020.4 |
| 20260509101347 | 16 | 65 | 6.4 | 11.3 | 0.00 | 0.00 | 0.00 | 57 | 1020.4 |
| 20260509100848 | 16 | 47 | 4.8 | 8.0 | 0.00 | 0.00 | 0.00 | 57 | 1020.4 |
| 20260509100328 | 15 | 116 | 1.6 | 4.8 | 0.00 | 0.00 | 0.00 | 58 | 1020.5 |
| 20260509095827 | 16 | 229 | 1.6 | 3.2 | 0.00 | 0.00 | 0.00 | 57 | 1020.5 |
| 20260509095329 | 16 | 121 | 0.0 | 4.8 | 0.00 | 0.00 | 0.00 | 60 | 1020.5 |
| 20260509094830 | 15 | 122 | 1.6 | 4.8 | 0.00 | 0.00 | 0.00 | 60 | 1020.5 |
| 20260509094313 | 15 | 51 | 3.2 | 4.8 | 0.00 | 0.00 | 0.00 | 59 | 1020.6 |
| 20260509093814 | 16 | 136 | 0.0 | 1.6 | 0.00 | 0.00 | 0.00 | 61 | 1020.6 |
| 20260509093317 | 16 | 137 | 0.0 | 4.8 | 0.00 | 0.00 | 0.00 | 62 | 1020.6 |
| 20260509092819 | 15 | 129 | 1.6 | 6.4 | 0.00 | 0.00 | 0.00 | 61 | 1020.5 |
| 20260509092324 | 15 | 49 | 3.2 | 6.4 | 0.00 | 0.00 | 0.00 | 62 | 1020.5 |
| 20260509091823 | 15 | 89 | 1.6 | 6.4 | 0.00 | 0.00 | 0.00 | 62 | 1020.5 |
| 20260509091323 | 15 | 49 | 0.0 | 6.4 | 0.00 | 0.00 | 0.00 | 64 | 1020.5 |
| 20260509090824 | 15 | 23 | 3.2 | 6.4 | 0.00 | 0.00 | 0.00 | 63 | 1020.5 |
| 20260509090325 | 15 | 43 | 0.0 | 4.8 | 0.00 | 0.00 | 0.00 | 67 | 1020.5 |
| 20260509085825 | 14 | 49 | 0.0 | 6.4 | 0.00 | 0.00 | 0.00 | 69 | 1020.5 |
| 20260509085325 | 14 | 50 | 3.2 | 6.4 | 0.00 | 0.00 | 0.00 | 68 | 1020.5 |
| 20260509084826 | 14 | 41 | 1.6 | 6.4 | 0.00 | 0.00 | 0.00 | 68 | 1020.6 |
| 20260509084327 | 14 | 11 | 3.2 | 4.8 | 0.00 | 0.00 | 0.00 | 68 | 1020.6 |
| 20260509083314 | 13 | 21 | 0.0 | 6.4 | 0.00 | 0.00 | 0.00 | 71 | 1020.5 |
| 20260509082814 | 13 | 22 | 3.2 | 6.4 | 0.00 | 0.00 | 0.00 | 72 | 1020.5 |
| 20260509082314 | 13 | 44 | 1.6 | 8.0 | 0.00 | 0.00 | 0.00 | 71 | 1020.5 |
| 20260509081816 | 13 | 32 | 4.8 | 8.0 | 0.00 | 0.00 | 0.00 | 70 | 1020.5 |
| 20260509081315 | 13 | 19 | 1.6 | 9.7 | 0.00 | 0.00 | 0.00 | 70 | 1020.5 |
| 20260509080815 | 13 | 43 | 4.8 | 9.7 | 0.00 | 0.00 | 0.00 | 67 | 1020.5 |
| 20260509080316 | 13 | 10 | 1.6 | 6.4 | 0.00 | 0.00 | 0.00 | 66 | 1020.5 |
| 20260509075816 | 13 | 14 | 3.2 | 8.0 | 0.00 | 0.00 | 0.00 | 72 | 1020.5 |
| 20260509075319 | 13 | 2 | 6.4 | 8.0 | 0.00 | 0.00 | 0.00 | 72 | 1020.5 |
| 20260509074820 | 13 | 37 | 3.2 | 9.7 | 0.00 | 0.00 | 0.00 | 73 | 1020.5 |
| 20260509074323 | 13 | 71 | 3.2 | 9.7 | 0.00 | 0.00 | 0.00 | 77 | 1020.5 |
| 20260509073823 | 13 | 56 | 3.2 | 11.3 | 0.00 | 0.00 | 0.00 | 79 | 1020.5 |
| 20260509073346 | 13 | 54 | 4.8 | 8.0 | 0.00 | 0.00 | 0.00 | 78 | 1020.5 |
| 20260509072828 | 13 | 57 | 3.2 | 8.0 | 0.00 | 0.00 | 0.00 | 77 | 1020.6 |
| 20260509072330 | 13 | 61 | 3.2 | 8.0 | 0.00 | 0.00 | 0.00 | 79 | 1020.6 |
| 20260509071812 | 13 | 40 | 4.8 | 8.0 | 0.00 | 0.00 | 0.00 | 77 | 1020.5 |
| 20260509071314 | 12 | 93 | 3.2 | 11.3 | 0.00 | 0.00 | 0.00 | 81 | 1020.5 |
| 20260509070817 | 12 | 54 | 6.4 | 11.3 | 0.00 | 0.00 | 0.00 | 79 | 1020.5 |